Location: Ditterswind
(50.1692°N, 10.6348°E)
Time: 16:57:05
(UTC+00:00)

Cosmos 540 Rocket - Pass Details

Date: 07 June 2020
Orbit: 741 x 753 km, 74.1° (Epoch: 08 July)

Event Time Altitude Azimuth Distance (km) Brightness Sun altitude
Exits shadow 00:41:04 22° 217° (SW) 1,606 4.6 -14.7°
Maximum altitude 00:44:25 68° 296° (WNW) 804 3.6 -14.5°
Drops below altitude 10° 00:49:32 10° 20° (NNE) 2,266 7.4 -14.2°
Sets 00:51:55 0° 23° (NNE) 3,192 8.7 -14.0°
